www.pogodaiklimat.ru
ПОГОДА в Леувардене
Время
(UTC), дата
13 10.02
14 10.02
15 10.02
17 10.02
16 10.02
18 10.02
19 10.02
20 10.02
21 10.02
23 10.02
22 10.02
00 11.02
01 11.02
02 11.02
03 11.02
05 11.02
04 11.02
06 11.02
07 11.02
08 11.02
09 11.02
11 11.02
10 11.02
12 11.02
13 11.02
14 11.02
15 11.02
17 11.02
16 11.02
18 11.02
19 11.02
20 11.02
21 11.02
23 11.02
22 11.02
00 12.02
01 12.02
02 12.02
03 12.02
05 12.02
04 12.02
06 12.02
07 12.02
08 12.02
09 12.02
11 12.02
10 12.02
12 12.02
13 12.02
14 12.02
15 12.02
17 12.02
16 12.02
18 12.02
19 12.02
20 12.02
21 12.02
23 12.02
22 12.02
00 13.02
01 13.02
02 13.02
03 13.02
05 13.02
04 13.02
06 13.02
07 13.02
08 13.02
09 13.02
11 13.02
10 13.02
12 13.02
13 13.02
14 13.02
15 13.02
17 13.02
16 13.02
18 13.02
19 13.02
20 13.02
21 13.02
23 13.02
22 13.02
00 14.02
01 14.02
02 14.02
03 14.02
05 14.02
04 14.02
06 14.02
07 14.02
08 14.02
09 14.02
11 14.02
10 14.02
12 14.02
13 14.02
14 14.02
15 14.02
17 14.02
16 14.02
18 14.02
19 14.02
20 14.02
21 14.02
23 14.02
22 14.02
00 15.02
01 15.02
02 15.02
03 15.02
05 15.02
04 15.02
06 15.02
07 15.02
08 15.02
09 15.02
11 15.02
10 15.02
12 15.02
13 15.02
14 15.02
15 15.02
17 15.02
16 15.02
18 15.02
19 15.02
20 15.02
21 15.02
23 15.02
22 15.02
00 16.02
01 16.02
02 16.02
03 16.02
05 16.02
04 16.02
06 16.02
07 16.02
08 16.02
09 16.02
11 16.02
10 16.02
12 16.02
13 16.02
14 16.02
15 16.02
17 16.02
16 16.02
18 16.02
19 16.02
20 16.02
21 16.02
23 16.02
22 16.02
00 17.02
01 17.02
02 17.02
03 17.02
05 17.02
04 17.02
06 17.02
07 17.02
08 17.02
09 17.02
11 17.02
10 17.02
12 17.02
Ветер
(напр.,м/с)
Видим. Явления Облачность Т
(С)
Тd
(С)
f
(%)
Тe
(С)
Тes
(С)
Комфортность P
(гПа)
Po
(гПа)
Тmin
(С)
Tmax
(С)
R
(мм)
R24
(мм)
S
(см)
З 15 18 км 9/9 1500 м
[]
+7.2 +0.9 64 +1 +1 993.6 993.5
З 15 17 км 10/6 1000 м
[]
+7.7 +1.1 63 +2 +2 993.6 993.7
З 12-17
{21}
16 км 10/9 1140 м
[]
+7.2 +1.4 67 +1 +1 993.7 993.6
ЮЗ 8 12 км 10/10
[]
+7.3 +2.9 74 +2 +2 991.1 991.1
ЮЗ 8 12 км 10/6 1500 м
[]
+7.1 +2.8 74 +2 +2 992.7 992.7
ЮЗ 12-17
{21}
11 км слаб. ливневой дождь 10/10 480 м
[]
+5.5 +0.4 70 -1 -1 990.4 990.1 +7.9 0.1
ЮЗ 4 40 км в посл. час дождь 9/8 1000 м
[]
+2.6 +1.6 93 -2 -2 989.1 989.4 3
З 6 40 км слаб. морось 10/6 600 м
[]
+3.7 +2.8 94 -2 -2 989.0 989.0 0.1
ЮЗ 6-8
{17}
45 км в посл. час осадки {ливн. осадки} 5/0
[]
+3.4 +1.8 89 -2 -2 989.2 989.0
З 13-17
{20}
23 км в посл. час дождь {ливн. осадки} 3/1 600 м
[]
+5.0 0.0 70 -2 -2 989.8 989.7
З 11-16
{16}
26 км {ливн. осадки, снег} 9/9 2000 м
[]
+5.4 +1.9 78 -1 -1 989.2 989.2
З 14-19
{21}
15 км слаб. ливневой дождь {морось} 9/9 840 м
[]
+4.9 +0.6 74 -2 -2 990.1 990.1 0.1
З 14-19
{21}
13 км в посл. час дождь {ливн. осадки} 9/6 1000 м
[]
+5.0 +0.7 74 -2 -2 991.0 990.8
З 15-19
{22}
13 км в посл. час дождь {ливн. осадки, морось} 9/9 1000 м
[]
+5.5 +0.6 71 -2 -2 991.4 991.3
З 15-20
{23}
13 км в посл. час дождь {ливн. осадки, морось} 10/10 870 м
[]
+5.5 +0.6 71 -2 -2 991.8 991.6
З 15 12 км {ливн. осадки, морось} 10/10 1000 м
[]
+5.7 +0.7 70 -1 -1 992.9 992.7
З 15 11 км {ливн. осадки, морось} 10/6 1000 м
[]
+5.7 +0.7 70 -1 -1 992.5 992.3
З 14-18
{23}
12 км {ливн. осадки, морось} 10/10 800 м
[]
+5.8 +0.6 69 -1 -1 993.4 993.1 +2.5 3.4
З 15 12 км в посл. час осадки {ливн. осадки} 10/10 1000 м
[]
+5.7 +1.0 72 -1 -1 994.0 993.9
З 14 5000 м сильн. морось {ливн. осадки, дождь} 10/9 600 м
[]
+5.0 +1.5 78 -2 -2 994.9 994.6 0.2
З 15-20
{22}
12 км в посл. час дождь {ливн. осадки, морось} 10/10 900 м
[]
+5.5 +1.3 74 -2 -2 995.2 995.1 0.4
З 16 9000 м морось {ливн. осадки, дождь} 10/9 600 м
[]
+4.4 +2.0 84 -4 -4 996.4 996.2 0.6
З 15 10 км слаб. морось с дождем 10/8 600 м
[]
+4.7 +1.8 81 -3 -3 996.0 995.7
З 16-20
{24}
11 км слаб. ливневой дождь {морось} 10/10 800 м
[]
+5.1 +1.5 78 -3 -3 996.8 996.7 0.2
З 14 15 км в посл. час дождь {ливн. осадки} 10/8 1000 м
[]
+5.7 +0.4 69 -1 -1 997.5 997.4
З 16 16 км {ливн. осадки} 10/10 1500 м
[]
+6.2 +0.1 65 -1 -1 998.3 998.1
З 15-20
{22}
18 км в посл. час осадки 9/9 900 м
[]
+5.6 -0.1 67 -1 -1 998.9 998.7
З 13 14 км в посл. час дождь {ливн. осадки, морось} 10/8 1500 м
[]
+4.9 +0.6 74 -2 -2 999.7 999.6 0.1
З 16 21 км в посл. час морось {ливн. осадки} 9/6 1000 м
[]
+4.5 -0.4 70 -3 -3 999.2 999.1
З 13-17
{24}
17 км слаб. морось 8/8 930 м
[]
+5.3 0.0 69 -1 -1 1000.0 999.9 +6.4
З 15 19 км в посл. час дождь {ливн. осадки} 9/8 1500 м
[]
+4.6 -0.1 72 -3 -3 1000.6 1000.4
З 15 18 км слаб. морось 5/5 1500 м
[]
+5.4 -0.8 64 -2 -2 1000.7 1000.5
З 15-21
{23}
13 км слаб. ливневой дождь {морось} 9/9 960 м
[]
+5.3 -0.4 67 -2 -2 1000.9 1000.9
З 16-22
{22}
17 км в посл. час дождь {ливн. осадки, морось} 10/10 1500 м
[]
+5.2 -0.6 66 -2 -2 1001.9 1001.8
З 14-20
{21}
12 км морось {ливн. осадки} 10/6 1000 м
[]
+5.1 -0.1 69 -2 -2 1001.6 1001.4
З 14-21
{23}
15 км слаб. морось 10/10 870 м
[]
+5.0 -0.2 69 -2 -2 1002.4 1002.1
З 14-19
{22}
18 км в посл. час дождь {ливн. осадки} 9/9 1500 м
[]
+5.1 -0.9 65 -2 -2 1002.4 1002.3 0.1
З 12-17
{20}
12 км слаб. ливневой дождь 10/9 1000 м
[]
+4.5 +0.5 75 -2 -2 1002.6 1002.4 0.2
З 14-18
{22}
14 км в посл. час дождь {ливн. осадки} 10/10 800 м
[]
+4.8 +0.6 74 -2 -2 1002.7 1002.5 0.4
З 11 15 км в посл. час дождь {ливн. осадки} 10/8 1000 м
[]
+5.2 -0.2 68 -1 -1 1003.7 1003.5
З 14 15 км в посл. час морось {ливн. осадки, дождь} 10/9 1000 м
[]
+5.1 +0.2 71 -2 -2 1003.1 1002.9
З 13-17
{22}
12 км слаб. ливневой дождь 10/10 800 м
[]
+5.1 +0.4 72 -2 -2 1004.2 1003.9 +3.7 2.3
З 11 14 км ливневой дождь 10/8 1000 м
[]
+5.1 +0.2 71 -1 -1 1004.8 1004.7
З 10 15 км в посл. час дождь {ливн. осадки, морось} 10/10 1000 м
[]
+5.2 +0.2 70 -1 -1 1005.5 1005.5
З 12-17
{18}
17 км {ливн. осадки, морось} 10/10 840 м
[]
+5.5 +0.3 69 -1 -1 1006.2 1006.0
З 12 16 км в посл. час осадки {ливн. осадки, морось} 10/10 1500 м
[]
+5.8 +0.9 71 -1 -1 1007.9 1007.7
З 12 16 км в посл. час морось {ливн. осадки} 10/6 1000 м
[]
+5.7 +0.6 70 -1 -1 1006.9 1006.8
З 11-15
{19}
16 км в посл. час осадки {ливн. осадки, морось} 9/5 800 м
[]
+5.7 +0.7 70 -1 -1 1008.6 1008.4
З 12 18 км 9/9 1500 м
[]
+5.9 +0.3 67 -0 -0 1008.9 1008.7
З 10 21 км 6/6 1000 м
[]
+6.1 +1.0 70 0 0 1009.4 1009.2
З 12-15
{17}
21 км 5/5 930 м
[]
+5.8 +0.8 70 -1 -1 1009.8 1009.6
З 10 19 км слаб. ливневой дождь 9/9 1500 м
[]
+5.1 +1.1 75 -1 -1 1011.1 1010.9 0.1
З 11 22 км 9/9 1500 м
[]
+5.5 +0.8 72 -1 -1 1010.4 1010.3
З 9-12
{17}
23 км в посл. час дождь 8/8 930 м
[]
+5.0 +0.7 74 -1 -1 1011.5 1011.4 +6.5
З 7 25 км 1/1 1000 м
[]
+5.0 +0.6 73 -0 -0 1011.8 1011.7
З 8 26 км в посл. час дождь {морось} 5/4 1000 м
[]
+5.2 +0.6 72 -0 -0 1011.7 1011.6 0.1
З 7-9
{12}
30 км в посл. час дождь {ливн. осадки, морось} 6/6 1350 м
[]
+5.2 +0.3 71 0 0 1011.7 1011.7
ЮЗ 5-7
{8}
30 км в посл. час дождь {ливн. осадки, морось} 3/1 1000 м
[]
+3.0 +0.6 84 -2 -2 1012.0 1011.8
ЮЗ 6-8
{9}
35 км ливневой дождь {морось} 5/4 1000 м
[]
+4.5 +0.7 76 -1 -1 1012.0 1011.9
ЮЗ 4-6
{12}
26 км в посл. час дождь {ливн. осадки, морось} 9/3 1110 м
[]
+2.5 +0.7 88 -2 -2 1011.7 1011.6
Ю 4-6
{6}
35 км ясно +1.9 +0.2 88 -3 -3 1011.2 1011.1
Ю 4-6
{6}
25 км 6/6
[]
+1.5 +0.4 92 -4 -4 1010.4 1010.5
Ю 4-6
{6}
11 км 10/0
[]
+1.9 +1.1 94 -3 -3 1009.5 1009.4
Ю 4 13 км морось 9/9 1500 м
[]
+3.3 +2.2 92 -1 -1 1007.3 1007.3
Ю 5 12 км 10/10 2000 м
[]
+3.1 +2.3 94 -2 -2 1008.6 1008.6
ЮВ 5-8
{8}
17 км в посл. час морось 10/10 900 м
[]
+3.3 +1.7 89 -2 -2 1005.7 1005.6 +1.3 0.3
Ю 6 27 км 4/4 1500 м
[]
+3.5 +1.6 87 -2 -2 1003.9 1003.9
ЮВ 6 24 км слаб. морось 9/9 1500 м
[]
+3.7 +1.7 87 -2 -2 1002.5 1002.6
ЮВ 6-10
{11}
22 км морось с дождем {ливн. осадки} 9/9 500 м
[]
+4.1 +2.5 89 -1 -1 1001.2 1001.3 0.3
ЮВ 9 11 км слаб. ливневой дождь 10/6 300 м
[]
+3.6 +2.4 92 -3 -3 996.9 997.0 2
ЮВ 7 9000 м дождь {ливн. осадки, морось} 10/6 300 м
[]
+3.8 +2.6 92 -2 -2 999.1 999.2 0.9
ЮВ 8-12
{14}
6000 м дождь со снегом {ливн. осадки} 10/10 210 м
[]
+3.0 +2.0 93 -4 -4 995.0 995.0 2
ЮВ 6 7000 м дождь {снег} 10/10 300 м
[]
+3.7 +2.8 94 -2 -2 994.6 994.6 0.9
Ю 7 40 км в посл. час дождь 10/6 300 м
[]
+4.7 +3.6 93 -1 -1 994.1 994.1
Ю 5-7
{13}
19 км слаб. морось {дождь} 10/10 500 м
[]
+5.4 +4.5 94 +1 +1 993.8 993.7
Ю 3 12 км дождь {ливн. осадки, морось} 10/8 600 м
[]
+6.1 +5.5 96 +3 +3 994.7 994.5 0.4
Ю 4 18 км слаб. дождь {морось} 10/10 600 м
[]
+5.9 +5.2 95 +2 +2 993.9 993.8 0.3
Ю 2-3
{13}
9000 м слаб. ливневой дождь 10/10 60 м
[]
+6.2 +5.7 97 +4 +4 995.7 995.5 +6.4 2
Ю 1 10 км слаб. дождь {морось} 10/10 300 м
[]
+5.7 +5.4 98 +4 +4 996.6 996.5 0.2
З 2 7000 м в посл. час дождь {ливн. осадки, морось} 10/9 300 м
[]
+5.6 +5.1 97 +3 +3 998.2 997.9
ЮЗ 2-3
{3}
7000 м дымка {ливн. осадки} 5/5 800 м
[]
+5.1 +4.8 98 +2 +2 999.2 999.0
СЗ 3-5
{5}
12 км {ливн. осадки, дымка} 9/9 600 м
[]
+5.2 +4.8 97 +2 +2 1002.7 1002.6
З 3-4
{4}
1000 м в посл. час туман {ливн. осадки, дымка} 6/6 1500 м
[]
+4.2 +4.0 99 0 0 1001.3 1001.0
З 3-5
{5}
11 км {ливн. осадки, дымка} 1/1 960 м
[]
+4.2 +3.6 96 0 0 1004.4 1004.2
З 3-3
{5}
10 км 1/1 1000 м
[]
+2.7 +2.2 97 -2 -2 1005.7 1005.5
З 3-3
{6}
10 км 10/10 1000 м
[]
+4.5 +4.0 97 +1 +1 1007.3 1007.2
З 3-3
{6}
24 км 10/10 1140 м
[]
+4.8 +3.9 94 +1 +1 1008.3 1008.1
С 5 15 км 10/8 600 м
[]
+5.7 +4.9 95 +1 +1 1011.1 1010.9
З 3 21 км 10/10 1000 м
[]
+5.1 +4.1 93 +2 +2 1009.7 1009.5
С 4-5
{7}
20 км 10/10 210 м
[]
+5.0 +4.3 95 +1 +1 1012.7 1012.1 +2.2 8.9
СВ 3 22 км 10/10 600 м
[]
+4.6 +3.7 94 +1 +1 1014.8 1014.5
СЗ 2 30 км 10/10 600 м
[]
+5.0 +3.2 88 +2 +2 1016.9 1016.3
С 2-3
{6}
45 км 10/10 720 м
[]
+5.9 +3.2 83 +4 +4 1016.9 1016.7
ЮЗ 3 45 км 10/10 600 м
[]
+6.9 +2.1 71 +4 +4 1018.6 1018.5
ЮЗ 1 45 км 10/10 600 м
[]
+6.6 +1.9 72 +6 +6 1018.2 1018.0
ЮЗ 5-7
{7}
45 км 10/10 700 м
[]
+7.0 +2.3 72 +3 +3 1019.3 1019.2
ЮЗ 4 45 км 10/10 600 м
[]
+7.1 +2.8 74 +4 +4 1019.0 1019.0
ЮЗ 5 45 км 10/10 600 м
[]
+7.2 +2.9 74 +3 +3 1019.0 1019.0
Ю 5-8
{9}
45 км 10/10 630 м
[]
+6.9 +3.3 78 +3 +3 1019.0 1018.9
Ю 4 45 км 10/10
[]
+5.5 +3.4 86 +1 +1 1019.9 1019.7
Ю 4 45 км 10/10
[]
+6.4 +3.7 83 +3 +3 1019.2 1019.1
Ю 6-8
{9}
40 км 10/3 720 м
[]
+5.7 +3.4 85 +1 +1 1019.4 1019.2 +7.5
Ю 6 23 км 10/10
[]
+6.0 +3.7 85 +1 +1 1018.9 1018.8
Ю 5 18 км 10/10
[]
+5.8 +3.8 87 +1 +1 1018.8 1018.8
Ю 6-9
{10}
15 км 10/9 600 м
[]
+6.2 +4.2 87 +1 +1 1018.2 1018.2
Ю 7-10
{11}
23 км 10/10 600 м
[]
+7.4 +5.2 86 +3 +3 1017.8 1017.8
Ю 7-11
{11}
19 км 10/10
[]
+7.1 +4.7 85 +2 +2 1018.0 1017.9
Ю 6-10
{11}
21 км 10/10 700 м
[]
+7.5 +5.3 86 +3 +3 1017.7 1017.6
Ю 7-10
{11}
21 км 10/10 1000 м
[]
+7.6 +5.3 85 +3 +3 1016.8 1016.8
Ю 7-11
{11}
20 км 10/10 600 м
[]
+7.8 +5.4 85 +3 +3 1016.3 1016.3
Ю 8-12
{12}
19 км 10/10 900 м
[]
+7.7 +5.3 85 +3 +3 1015.8 1015.8
Ю 7 14 км 10/9 600 м
[]
+7.7 +5.6 87 +3 +3 1015.2 1015.1
Ю 8 18 км 10/10 1000 м
[]
+7.4 +5.4 87 +2 +2 1015.5 1015.4
ЮЗ 7-11
{13}
6000 м дымка 10/10 210 м
[]
+7.8 +5.9 88 +3 +3 1015.0 1014.9 +5.7
Ю 8 3800 м в посл. час морось 10/10 300 м
[]
+7.2 +6.2 93 +2 +2 1014.7 1014.6
Ю 7 2500 м морось {дымка} 10/9 300 м
[]
+7.5 +6.8 95 +3 +3 1014.7 1014.6 0.1
Ю 8-11
{14}
13 км в посл. час морось {дымка} 10/10 240 м
[]
+8.3 +7.3 93 +4 +4 1013.9 1013.9
Ю 9 17 км {морось, дымка} 10/10 300 м
[]
+9.4 +7.6 89 +5 +5 1012.9 1012.8
Ю 8 14 км {морось, дымка} 10/10 200 м
[]
+8.7 +7.6 93 +4 +4 1013.4 1013.4
Ю 9-13
{14}
19 км {морось, дымка} 10/10 330 м
[]
+9.7 +7.7 87 +5 +5 1011.8 1011.7
Ю 8 20 км 10/10 300 м
[]
+9.9 +7.9 87 +6 +6 1011.3 1011.1
Ю 9 21 км 10/10 1500 м
[]
+10.3 +7.7 84 +6 +6 1010.1 1010.1
Ю 8-12
{16}
24 км 10/10 1500 м
[]
+10.7 +7.9 83 +7 +7 1008.9 1008.9
Ю 10 35 км 10/10 1500 м
[]
+10.9 +7.6 80 +7 +7 1007.1 1007.1
Ю 10 26 км 10/10 600 м
[]
+10.8 +7.5 80 +7 +7 1008.2 1008.1
Ю 10-15
{16}
35 км слаб. ливневой дождь {морось} 10/10 1020 м
[]
+11.1 +7.5 78 +7 +7 1006.0 1006.0 +11.1
Ю 11 27 км слаб. дождь 10/6 1500 м
[]
+10.6 +8.0 84 +6 +6 1004.2 1004.2 0.4
Ю 13 21 км слаб. морось с дождем 9/9 1500 м
[]
+10.6 +7.6 82 +6 +6 1002.9 1003.1
Ю 13-19
{19}
35 км в посл. час дождь {ливн. осадки} 10/10 930 м
[]
+11.0 +7.3 78 +6 +6 1001.7 1001.6
ЮЗ 14-22
{22}
11 км {ливн. осадки, дождь} 10/10 600 м
[]
+11.1 +7.9 81 +6 +6 1001.3 1001.1
Ю 13-20
{20}
30 км {ливн. осадки, дождь} 10/10 600 м
[]
+11.7 +7.3 74 +7 +7 1001.3 1001.3
ЮЗ 12-19
{22}
5000 м дымка {ливн. осадки, дождь} 10/10 210 м
[]
+10.7 +8.7 87 +6 +6 1001.0 1000.9
ЮЗ 10-15
{17}
4700 м в посл. час дождь {ливн. осадки} 10/8 300 м
[]
+10.6 +9.7 94 +6 +6 1000.9 1000.8
ЮЗ 11-16
{17}
6000 м в посл. час дождь {ливн. осадки} 10/10 300 м
[]
+10.9 +9.5 91 +6 +6 1000.2 1000.2
Ю 12-19
{19}
45 км {ливн. осадки, дымка} 10/10 540 м
[]
+12.2 +8.8 80 +8 +8 998.5 998.6
Ю 12 45 км {ливн. осадки, дымка} 10/10 600 м
[]
+11.9 +8.8 81 +8 +8 996.3 996.2
Ю 14 45 км {ливн. осадки, дымка} 10/10 600 м
[]
+12.6 +8.9 78 +9 +9 997.4 997.3
Ю 14-22
{22}
45 км в посл. час дождь {ливн. осадки} 10/10 450 м
[]
+12.0 +9.5 85 +8 +8 995.8 995.8 +10.3 0.6
Ю 13 45 км в посл. час дождь {ливн. осадки} 10/10 300 м
[]
+12.1 +9.9 86 +8 +8 994.8 994.7
Ю 13 3900 м слаб. ливневой дождь 10/10 300 м
[]
+11.4 +10.5 94 +7 +7 994.1 994.1 0.6
ЮЗ 13-21
{22}
3700 м дождь {ливн. осадки, морось} 10/10 210 м
[]
+11.4 +10.6 95 +7 +7 994.0 994.0 0.9
ЮЗ 12 3100 м дождь {ливн. осадки, морось} 10/8 200 м
[]
+11.5 +11.2 98 +7 +7 994.7 994.6 4
ЮЗ 13 2700 м дождь {ливн. осадки, морось} 10/10 200 м
[]
+11.4 +11.0 97 +7 +7 994.4 994.3 4
ЮЗ 13-18
{22}
5000 м дождь {ливн. осадки, морось} 10/10 120 м
[]
+11.3 +10.4 94 +7 +7 995.0 994.9 5
ЮЗ 10 3200 м дождь {морось} 10/9 1000 м
[]
+10.5 +9.6 94 +6 +6 994.2 994.4 0.9
ЮЗ 8 4100 м дождь {морось} 10/8 200 м
[]
+9.5 +9.1 97 +5 +5 993.4 993.2 2
ЮЗ 7-10
{18}
3900 м сильн. дождь {морось} 10/10 120 м
[]
+8.8 +8.6 99 +4 +4 992.3 992.3 4
З 10 8000 м дождь {морось} 10/6 600 м
[]
+8.0 +7.2 95 +3 +3 992.6 992.4 4
З 7 6000 м дождь {морось} 10/8 200 м
[]
+8.7 +8.6 99 +4 +4 991.8 991.8 5
З 10-14
{18}
10 км слаб. дождь {морось} 10/10 1170 м
[]
+7.9 +6.7 92 +2 +2 993.7 993.6 +12.2 1
ЮЗ 8 35 км слаб. дождь 10/10 1500 м
[]
+7.6 +6.4 92 +3 +3 994.8 994.6 0.8
ЮЗ 11 30 км в посл. час дождь 9/6 600 м
[]
+8.2 +6.2 87 +3 +3 996.2 996.0
ЮЗ 11-15
{17}
23 км {дождь} 10/10 500 м
[]
+8.0 +5.3 83 +3 +3 997.3 997.2
ЮЗ 10-15
{15}
17 км 4/4 600 м
[]
+7.8 +5.4 85 +2 +2 999.3 999.0
ЮЗ 10-14
{15}
21 км 10/10
[]
+7.9 +5.2 83 +3 +3 998.4 998.2
ЮЗ 11-16
{17}
17 км 5/5 750 м
[]
+7.9 +4.1 77 +2 +2 1000.1 1000.0
ЮЗ 13-18
{18}
13 км 9/8 1000 м
[]
+8.0 +3.7 74 +2 +2 1000.8 1000.6
ЮЗ 15-21
{21}
15 км 4/4 1000 м
[]
+7.3 +2.2 70 +1 +1 1001.8 1001.6
ЮЗ 12-17
{21}
14 км 1/1 1020 м
[]
+7.2 +2.4 72 +1 +1 1003.4 1003.2
ЮЗ 11 12 км 1/1 600 м
[]
+6.7 +2.4 74 +1 +1 1004.7 1004.6
ЮЗ 12 13 км 1/1 1000 м
[]
+6.6 +2.6 76 0 0 1004.2 1004.0
ЮЗ 11-15
{21}
12 км ясно +6.5 +2.2 74 +1 +1 1004.9 1004.7 +6.3 31.9
ЮЗ 10 12 км ясно +6.4 +2.2 74 +1 +1 1005.4 1005.2
ЮЗ 9 10 км 9/9 1000 м
[]
+6.9 +3.6 79 +2 +2 1006.1 1005.9
ЮЗ 11-15
{17}
10 км 4/4 570 м
[]
+7.4 +4.5 82 +2 +2 1006.2 1006.1
ЮЗ 13 12 км 9/6 600 м
[]
+8.5 +5.3 80 +3 +3 1006.5 1006.5
ЮЗ 13 13 км 1/1 600 м
[]
+8.6 +5.0 78 +3 +3 1006.2 1006.1
ЮЗ 12-19
{19}
13 км в посл. час дождь {ливн. осадки} 10/10 500 м
[]
+8.9 +5.4 79 +4 +4 1006.4 1006.3 0.1
Местоположение метеостанции Леуварден (Нидерланды): широта 53.22 долгота 5.77 высота над уровнем моря 2 м.
В архиве по умолчанию представлена погода в Леувардене за последнюю неделю. Архивные данные за месяц целиком и за предыдущие месяцы, начиная с января 2011 года, Вы можете получить, выбрав интересующий диапазон дат из раскрывающегося списка и нажав кнопку "Найти!".
*Определитесь, кто Вы:
Внимание! Время в таблицах - всемирное. Для получения местного времени необходимо прибавить поправку, которая равна 1 ч.
Смотрите также архив погоды в соседних городах и на ближайших метеорологических станциях:
Партнеры нашего сайта:      
Пояснения к столбцам:
  • Ветер - указаны скорость ветра в м/с - средняя за 10 мин, порывы в срок и между сроками (в фигурных скобках) и направление, откуда дует ветер: С - северный,
  • СВ - северо-восточный, В - восточный, ЮВ - юго-восточный, Ю - южный, ЮЗ - юго-западный, З - западный, СЗ - северо-западный.
  • Видимость - горизонтальная дальность видимости в метрах или километрах. При видимости от 1 до 10 км при отсутствии осадков обычно наблюдается дымка, при ухудшении видимости до 1 км и менее - туман. В сухую погоду видимость может ухудшаться дымом, пылью или мглою.
  • Явления - указаны атмосферные явления, наблюдавшиеся в срок или в последний час перед сроком; фигурными скобками обозначены явления, наблюдавшиеся между сроками (за 1-3 часа до срока); квадратными скобками обозначены град или гололедные отложения с указанием их диаметра в мм.
  • Облачность - указаны через наклонную черту общая и нижняя облачность в баллах и высота нижней границы облаков в метрах; квадратными скобками обозначены формы облаков: Ci - перистые, Cs - перисто-слоистые, Cc - перисто-кучевые, Ac - высококучевые, As - высокослоистые, Sc - слоисто-кучевые, Ns - слоисто-дождевые, Cu - кучевые, Cb - кучево-дождевые. Подробнее классификацию облаков см. в Атласе облаков (PDF).
  • T - Температура воздуха - температура, измеренная на высоте 2 м над землей.
  • Td - Температура точки росы - температура, при понижении до которой содержащийся в воздухе водяной пар достигнет насыщения.
  • f - Относительная влажность воздуха - влажноcть воздуха, измеренная на высоте 2 м над землей.
  • Te - Эффективная температура - температура, которую ощущает одетый по сезону человек в тени. Характеристика душности погоды. При расчете учитывается влияние влажности воздуха и скорости ветра на теплоощущения человека.
  • Tes - Эффективная температура на солнце - температура, которую ощущает человек, с поправкой на солнечный нагрев. Характеристика знойности погоды. Зависит от высоты солнца над горизонтом, облачности и скорости ветра. Ночью, в пасмурную погоду, а также при ветре 12 м/с и более поправка равна нулю.
  • P - Атмосферное давление - приведенное к уровню моря атмосферное давление.
  • Po - Атмосферное давление - измеренное на уровне метеостанции атмосферное давление.
  • Tmin - Минимальная температура - минимум температуры воздуха на высоте 2 м над землей.
  • Tmax - Максимальная температура - максимум температуры воздуха на высоте 2 м над землей.
  • R - Количество осадков - Количество выпавших осадков за период времени, мм. При наведении курсора мыши на число - период времени, за который выпало указанное количество осадков.
  • R24 - Количество осадков - Количество выпавших осадков за 24 часа, мм.
  • S - Снежный покров - Высота снежного покрова, см. При наведении курсора мыши на число - состояние снежного покрова и степень покрытия местности в баллах.